TimeMDT,TemperatureF,Dew PointF,Humidity,Sea Level PressureIn,VisibilityMPH,Wind Direction,Wind SpeedMPH,Gust SpeedMPH,PrecipitationIn,Events,Conditions,WindDirDegrees,DateUTC
12:52 AM,57.9,53.1,84,30.01,-9999.0,Calm,Calm,-,N/A,,Unknown,0,2013-09-09 06:52:00
1:52 AM,57.9,53.1,84,30.01,-9999.0,Calm,Calm,-,N/A,,Unknown,0,2013-09-09 07:52:00
2:52 AM,59.0,53.1,81,30.00,-9999.0,Calm,Calm,-,N/A,,Unknown,0,2013-09-09 08:52:00
3:52 AM,59.0,53.1,81,29.99,-9999.0,Calm,Calm,-,N/A,,Unknown,0,2013-09-09 09:52:00
4:52 AM,59.0,54.0,83,30.01,-9999.0,Calm,Calm,-,N/A,,Unknown,0,2013-09-09 10:52:00
5:52 AM,57.9,53.1,84,30.02,-9999.0,Calm,Calm,-,N/A,,Unknown,0,2013-09-09 11:52:00
6:52 AM,57.9,53.1,84,30.03,-9999.0,Calm,Calm,-,N/A,,Unknown,0,2013-09-09 12:52:00
7:52 AM,57.0,53.1,87,30.04,-9999.0,Calm,Calm,-,N/A,,Unknown,0,2013-09-09 13:52:00
8:52 AM,57.0,53.1,87,30.07,-9999.0,Calm,Calm,-,N/A,,Unknown,0,2013-09-09 14:52:00
9:52 AM,61.0,53.1,75,30.07,-9999.0,Calm,Calm,-,N/A,,Unknown,0,2013-09-09 15:52:00
10:52 AM,64.0,53.1,67,30.06,-9999.0,Calm,Calm,-,N/A,,Unknown,0,2013-09-09 16:52:00
11:52 AM,71.1,53.1,53,30.02,-9999.0,Calm,Calm,-,N/A,,Unknown,0,2013-09-09 17:52:00
12:52 PM,73.9,54.0,50,30.00,-9999.0,Calm,Calm,-,N/A,,Unknown,0,2013-09-09 18:52:00
1:52 PM,79.0,54.0,42,29.95,-9999.0,North,3.5,-,N/A,,Unknown,350,2013-09-09 19:52:00
2:52 PM,84.9,53.1,33,29.92,-9999.0,NNW,3.5,-,N/A,,Unknown,340,2013-09-09 20:52:00
3:52 PM,84.9,54.0,34,29.90,-9999.0,Calm,Calm,-,N/A,,Unknown,0,2013-09-09 21:52:00
4:52 PM,84.0,57.0,40,29.88,-9999.0,Calm,Calm,-,N/A,,Unknown,0,2013-09-09 22:52:00
5:52 PM,73.9,57.9,57,29.90,-9999.0,Calm,Calm,-,N/A,,Unknown,0,2013-09-09 23:52:00
6:52 PM,70.0,57.0,63,29.90,-9999.0,NNW,5.8,-,N/A,,Unknown,340,2013-09-10 00:52:00
7:52 PM,66.9,57.9,73,29.92,-9999.0,Calm,Calm,-,N/A,,Unknown,0,2013-09-10 01:52:00
8:52 PM,64.0,57.0,78,29.95,-9999.0,Calm,Calm,-,N/A,,Unknown,0,2013-09-10 02:52:00
9:52 PM,63.0,57.0,81,29.96,-9999.0,North,3.5,-,N/A,,Unknown,350,2013-09-10 03:52:00
10:52 PM,61.0,57.0,87,29.97,-9999.0,Calm,Calm,-,N/A,,Unknown,0,2013-09-10 04:52:00
11:52 PM,60.1,55.9,86,29.98,-9999.0,Calm,Calm,-,N/A,,Unknown,0,2013-09-10 05:52:00